Location: Yellowknife
(62.4500°N, 114.3500°W)
Time: 10:34:27
(UTC-06:00)

ISS - Visible Passes

Search period start: 16 July 2018 00:00
Search period end: 26 July 2018 00:00
Orbit: 402 x 408 km, 51.6° (Epoch: 17 July)

Date Brightness Start Highest point End Pass type
(mag) Time Alt. Az. Time Alt. Az. Time Alt. Az.
18 Jul -1.9 02:07:16 10° SSW 02:08:47 13° S 02:10:18 10° SE visible
19 Jul -1.8 01:15:50 10° S 01:16:58 11° SSE 01:18:07 10° SE visible
20 Jul -2.0 01:58:59 10° SSW 02:00:39 13° S 02:02:17 10° SSE visible
21 Jul -1.9 01:07:13 10° SSW 01:08:47 13° S 01:10:22 10° SE visible
21 Jul -1.8 02:43:12 10° SSW 02:44:17 11° SSW 02:45:22 10° S visible
22 Jul -1.9 01:50:58 10° SW 01:52:27 12° S 01:53:56 10° SSE visible
23 Jul -1.9 00:58:57 10° SSW 01:00:35 13° S 01:02:13 10° SSE visible
24 Jul -1.7 01:43:23 10° SSW 01:44:11 11° SSW 01:44:35 10° S visible
25 Jul -1.8 00:50:56 10° SW 00:52:18 12° S 00:53:40 10° SSE visible
